Location: Unspecified
(38.0989°N, 0.6729°W)
Time: 22:20:55
(UTC+01:00)

OTV 4 - Visible Passes

Search period start: 21 February 2017 00:00
Search period end: 03 March 2017 00:00
Orbit: 322 x 354 km, 38.0° (Epoch: 14 January)

Date Brightness Start Highest point End Pass type
(mag) Time Alt. Az. Time Alt. Az. Time Alt. Az.
26 Feb 2.1 19:54:25 10° SSW 19:56:39 19° SSE 19:57:16 18° SE visible
27 Feb 1.1 20:14:45 10° SW 20:17:34 39° SSE 20:17:34 39° SSE visible
28 Feb 1.4 20:35:38 10° WSW 20:37:48 43° WSW 20:37:48 43° WSW visible
01 Mar 1.1 19:20:52 10° SW 19:23:43 42° SSE 19:26:34 10° E visible
01 Mar 2.9 20:56:42 10° W 20:57:59 23° W 20:57:59 23° W visible
02 Mar 0.4 19:41:46 10° WSW 19:44:44 73° S 19:46:51 17° E visible
02 Mar 3.9 21:17:48 10° W 21:18:06 12° W 21:18:06 12° W visible
